Regional Weather Roundup
Issued by NWS

Home | Current Version | Previous Version | Text Only | Print | Product List | Glossary On
Versions: 1 2 3 4 5 6 7 8 9 10 11 12 13 14 15 16 17 18 19 20 21 22 23 24 25 26 27 28 29 30 31 32 33 34 35 36 37 38 39 40 41 42 43 44 45 46 47 48 49 50
000
ASUS44 KOUN 031810
RWROK

WEATHER ROUNDUP FOR OKLAHOMA
NATIONAL WEATHER SERVICE NORMAN OK
100 PM CDT WED JUN 03 2015

NOTE: "FAIR" INDICATES FEW OR NO CLOUDS BELOW 12,000 FEET WITH NO
      SIGNIFICANT WEATHER AND/OR OBSTRUCTIONS TO VISIBILITY.

OKZ001>007-009>012-014-015-017-031900-
NORTHWEST OKLAHOMA AND THE PANHANDLE

CITY           SKY/WX    TMP DP  RH WIND       PRES   REMARKS
GAGE           FAIR      87  66  49 S22G36    29.84S
6HR MIN TEMP:  68; 6HR MAX TEMP:  87;

GUYMON         FAIR      89  56  32 NW7       29.84R
ENID/WOODRING  MOSUNNY   90  66  45 S21G29    29.84S HX  92
$$

OKZ016-021>023-033>039-044-045-031900-
SOUTHWEST OKLAHOMA

CITY           SKY/WX    TMP DP  RH WIND       PRES   REMARKS
LAWTON/REGL    FAIR      89  64  43 S18       29.88F HX  90
6HR MIN TEMP:  69; 6HR MAX TEMP:  89;

LAWTON/FT SILL FAIR      87  69  54 S16G24    29.88F HX  90
FREDERICK      FAIR      88  65  46 S16G25    29.86F HX  90
CLINTON        FAIR      88  64  44 S21G29    29.89F
HOBART         FAIR      88  65  46 S23G31    29.89S HX  90
ALTUS AFB      SUNNY     87  68  51 S22G29    29.87F HX  90
$$

OKZ018>020-024>031-031900-
CENTRAL OKLAHOMA

CITY           SKY/WX    TMP DP  RH WIND       PRES   REMARKS
OKLAHOMA CITY  FAIR      86  66  51 S21G26    29.89F
6HR MIN TEMP:  68; 6HR MAX TEMP:  86;

OKC/WILEY POST FAIR      86  67  52 S18G25    29.89F
OKC/TINKER AFB FAIR      85  66  54 S18G25    29.89F
STILLWATER     FAIR      88  67  49 S16       29.89R HX  91
GUTHRIE        FAIR      88  66  48 S17G23    29.88S HX  90
$$

OKZ008-013-054>072-031900-
NORTHEAST OKLAHOMA

CITY           SKY/WX    TMP DP  RH WIND       PRES   REMARKS
TULSA          CLOUDY    85  67  54 S17       29.92S
6HR MIN TEMP:  70; 6HR MAX TEMP:  85;

TULSA/JONES    FAIR      86  66  51 S12       29.92S
PONCA CITY     FAIR      87  68  52 SE18      29.88R HX  90
BARTLESVILLE   FAIR      86  69  56 S13G18    29.93S HX  90
MUSKOGEE       FAIR      83  67  58 S12G21    29.97F
$$

OKZ032-040>043-046>053-073>077-031900-
SOUTH CENTRAL/SOUTHEAST OKLAHOMA

CITY           SKY/WX    TMP DP  RH WIND       PRES   REMARKS
ARDMORE/DWNTWN FAIR      84  63  48 S8G16     29.93F
MCALESTER      FAIR      84  66  54 S8        29.96F
$$




USA.gov is the U.S. government's official web portal to all federal, state and local government web resources and services.